Regional Weather Roundup
Issued by NWS

Home | Current Version | Previous Version | Text Only | Print | Product List | Glossary Off
Versions: 1 2 3 4 5 6 7 8 9 10 11 12 13 14 15 16 17 18 19 20 21 22 23 24 25 26 27 28 29 30 31 32 33 34 35 36 37 38 39 40 41 42 43 44 45 46 47 48 49 50

000
ASUS43 KMPX 171801
RWRMN
WEATHER ROUNDUP FOR MINNESOTA
NATIONAL WEATHER SERVICE TWIN CITIES/CHANHASSEN MN
1200 PM CST TUE JAN 17 2017


NOTE: "FAIR" INDICATES FEW OR NO CLOUDS BELOW 12,000 FEET WITH NO
SIGNIFICANT WEATHER AND/OR OBSTRUCTIONS TO VISIBILITY. N/A MEANS
CURRENT SKY AND/OR WEATHER CONDITIONS ARE NOT AVAILABLE.

MNZ060>063-068>070-171900-
   Twin Cities Metro

CITY           SKY/WX    TMP DP  RH WIND       PRES   REMARKS
TWIN CITIES    PTSUNNY   33  25  72 N7        29.97S WCI  27
6HR MIN TEMP:  30; 6HR MAX TEMP:  33; 6HR PCP:  0.02;

ST PAUL        PTSUNNY   31  26  82 NW9       29.98F WCI  23
CRYSTAL        CLOUDY    33  24  69 NW8       29.97S WCI  26
BLAINE         PTSUNNY   36  28  75 NW9       29.97S
LAKEVILLE      CLOUDY    30  28  93 NW7       29.96S WCI  23
EDEN PRAIRIE   CLOUDY    34  27  75 NW7       29.96F WCI  28
6HR MIN TEMP:  30; 6HR MAX TEMP:  34;

SOUTH ST PAUL  CLOUDY    32  27  80 N7        29.96F WCI  26
LAKE ELMO      CLOUDY    32  28  86 NW3       29.96F
$$
MNZ001>005-007-008-013>017-022>024-027-028-171900-
   Northwest Minnesota

CITY           SKY/WX    TMP DP  RH WIND       PRES   REMARKS
BEMIDJI        CLOUDY    21  13  71 S5        29.90F WCI  15
HALLOCK        CLOUDY    10   9  92 S15       29.83F WCI  -6
ROSEAU         CLOUDY    14  10  85 S7        29.85F WCI   4
WARROAD        CLOUDY    21  18  86 SW7       29.85F WCI  13
THIEF RVR FALL CLOUDY    17  12  80 S12       29.90F WCI   4
CROOKSTON      CLOUDY    10   9  92 S13       29.92F WCI  -5
FOSSTON        CLOUDY    16  10  79 S10       29.91F WCI   3
DETROIT LAKES  CLOUDY    19  16  86 S6        29.94F WCI  11
MOORHEAD       SUNNY      9   7  92 S8        29.97F WCI  -4
PARK RAPIDS    CLOUDY    16  10  77 CALM      29.92F HAZE
MAHNOMEN       FAIR      15  13  90 S10       29.91F WCI   2
$$
MNZ006-009>011-018-025>026-171900-
   North Central Minnesota

CITY           SKY/WX    TMP DP  RH WIND       PRES   REMARKS
BAUDETTE       CLOUDY    18  10  71 S6        29.85F WCI  10
FLAG ISLAND    CLOUDY     9   5  85 S14       29.83F WCI  -8
INTL FALLS     CLOUDY    22  13  68 S6        29.88F WCI  14
6HR MIN TEMP:  -7; 6HR MAX TEMP:  22;

WASKISH        CLOUDY    19  12  73 CALM      29.89F
LONGVILLE      SUNNY     25  16  68 SW3       29.93S
GRAND RAPIDS   SUNNY     28  22  78 CALM      29.94F
CRANE LAKE     CLOUDY    25  19  80 CALM      29.92F
ORR            SUNNY     25  18  74 CALM      29.88F
COOK           SUNNY     27  19  74 CALM      29.91S
WALKER         FAIR      22  15  71 CALM      29.91F
$$
MNZ012-019>021-037-171900-
   Northeast Minnesota

CITY           SKY/WX    TMP DP  RH WIND       PRES   REMARKS
DULUTH         FOG       31  29  92 CALM      29.91F VSB 3/4
6HR MIN TEMP:  16; 6HR MAX TEMP:  31;

ELY            SUNNY     23  23 100 CALM      29.89F
HIBBING        SUNNY     18  14  84 CALM      29.92S FOG
EVELETH        SUNNY     20  17  90 CALM      29.92F FOG
DULUTH HARBOR  CLOUDY    30  28  93 CALM      29.96F FOG
TWO HARBORS    CLOUDY    30  27  86 CALM      29.91F HAZE
SILVER BAY     CLOUDY    32  28  86 SW3       29.91F FOG
GRAND MARAIS     N/A     34  30  85 CALM      29.93F
G MARAIS ARPRT SUNNY     32  23  69 CALM      29.88F
$$
MNZ029>031-032-039>041-046>048-054>057-064-171900-
   West Central Minnesota

CITY           SKY/WX    TMP DP  RH WIND       PRES   REMARKS
FERGUS FALLS   CLOUDY    10   9  92 S5        30.03F WCI   2
WHEATON        CLOUDY    21  21 100 S3        30.02F
MORRIS         CLOUDY    18  16  93 W3        29.99F
ALEXANDRIA     CLOUDY    18  15  88 SW3       29.97S
ELBOW LAKE     FAIR      11  10  92 CALM      29.99F FOG
WADENA         CLOUDY    16  16 100 W3        29.95S
GLENWOOD       SUNNY     19  12  73 CALM      29.98S
APPLETON       CLOUDY    16   9  73 CALM      30.01F
ORTONVILLE     CLOUDY    19  16  86 CALM      30.00F
MADISON        CLOUDY    21  12  68 CALM      30.02S
WILLMAR        FOG       19  19 100 CALM      30.01S VSB 1/4
$$
MNZ033>034-036-042>043-049>051-058-059-171900-
   Central Minnesota

CITY           SKY/WX    TMP DP  RH WIND       PRES   REMARKS
ST CLOUD       CLOUDY    30  29  96 W7        29.98S FOG     WCI  23
6HR MIN TEMP:  26; 6HR MAX TEMP:  30;

SAUK CENTRE    FAIR      21  16  79 W6        29.98S WCI  14
PAYNESVILLE    FOG       28  28 100 W7        29.99S VSB 1/4 WCI  20
AITKIN         SUNNY     27  18  69 SW5       29.94S WCI  21
PINE RIVER     SUNNY     25  18  74 CALM      29.97S
BRAINERD       SUNNY     20  14  77 W6        29.96S WCI  12
STAPLES        CLOUDY    18  16  93 CALM      29.95F
LONG PRAIRIE   FAIR      23  14  68 CALM      29.97F HAZE
LITTLE FALLS   SUNNY     28  19  69 CALM      29.98S
LITCHFIELD     CLOUDY    32  30  93 CALM      29.99S FOG
BUFFALO        CLOUDY    33  30  89 W6        29.99S WCI  27
MAPLE LAKE     CLOUDY    33  32  95 CALM      29.99S
HUTCHINSON     FOG       31  31 100 W6        30.00R VSB 1/2 WCI  25
$$
MNZ037-044-045-052-053-171900-
   East Central Minnesota

CITY           SKY/WX    TMP DP  RH WIND       PRES   REMARKS
PRINCETON      CLOUDY    34  27  75 W3        29.97F
MORA           SUNNY     32  21  64 CALM      29.97F
CAMBRIDGE      PTSUNNY   34  21  60 W3        29.95F
RUSH CITY      SUNNY     34  23  64 NW5       29.96S WCI  30
MOOSE LAKE     SUNNY     30  21  69 CALM      29.92F
HINCKLEY       FAIR      32  23  69 S5        29.95F WCI  27
CLOQUET        FOG       27  25  93 CALM      29.92F VSB 1/4
MCGREGOR       SUNNY     28  21  74 SW3       29.94F
$$
MNZ071>073-080-081-089-090-097-098-171900-
   Southwest Minnesota

CITY           SKY/WX    TMP DP  RH WIND       PRES   REMARKS
MONTEVIDEO     CLOUDY    28  18  64 CALM      30.03S
GRANITE FALLS  CLOUDY    22  17  83 W3        30.03S
CANBY            N/A     25  19  79 CALM      30.02S
MARSHALL       SUNNY     28  19  69 W8        30.01F WCI  20
REDWOOD FALLS  CLOUDY    23  18  81 W9        30.01S WCI  13
OLIVIA         CLOUDY    23  19  86 W8        30.01S FOG     WCI  14
PIPESTONE      SUNNY     21  21 100 W5        30.00R WCI  15
WINDOM         CLOUDY    28  27  93 W7        30.00R WCI  21
WORTHINGTON    FOG       29  28  96 W12       30.01S VSB 1/4 WCI  19
JACKSON        CLOUDY    28  28 100 W7        30.00S FOG     WCI  21
TRACY          SUNNY     31  27  83 SW3       29.99F
SLAYTON        CLOUDY    26  26  99 SW6       30.00F WCI  20
$$
MNZ065>067-074>077-082>085-091>093-171900-
   South Central Minnesota

CITY           SKY/WX    TMP DP  RH WIND       PRES   REMARKS
NEW ULM        CLOUDY    27  25  93 W9        30.00S FOG     WCI  17
ST JAMES       CLOUDY    27  27 100 W6        30.01S FOG     WCI  20
FAIRMONT       LGT SNOW  30  29  96 NW9       30.00F VSB 3/4 WCI  22
GLENCOE        FOG       33  33 100 NW5       29.97F VSB 3/4 WCI  29
FARIBAULT        N/A     34  28  80 NW7       29.96S WCI  28
OWATONNA       FOG       32  30  93 NW5       29.95F VSB 1/2 WCI  27
WASECA         SNOW      32  30  93 NW7       29.97F VSB 1/4 WCI  26
ALBERT LEA     CLOUDY    32  32 100 NW3       29.95S
$$
MNZ078>079-086>088-094>096-171900-
   Southeast Minnesota

CITY           SKY/WX    TMP DP  RH WIND       PRES   REMARKS
ROCHESTER      FOG       32  32 100 NW14      29.91F VSB 1/4 WCI  22
6HR MIN TEMP:  31; 6HR MAX TEMP:  32; 6HR PCP: TRACE;

RED WING       CLOUDY    36  30  80 NW6       29.94S FOG
STANTON        CLOUDY    33  29  86 NW3       29.94F FOG
DODGE CENTER   FOG       32  30  93 NW5       29.92F VSB 3/4 WCI  27
WINONA         MIX PCPN  34  34 100 NW3       29.92F
AUSTIN         FOG       30  30 100 NW5       29.93F VSB 1/2 WCI  25
PRESTON        FOG       32  31  96 NW3       29.91F VSB 3/4
$$
ABBREVIATIONS USED IN REMARKS
   TC - TEMPERATURES IN CELSIUS
  WCI - WIND CHILL INDEX
   HX - HEAT INDEX
  VSB - VISIBILITY
$$




USA.gov is the U.S. government's official web portal to all federal, state and local government web resources and services.